sat.trackr.live / text

‹ back to catalog

S-NET C

NORAD 43189 · 2018-014K

PAYLOAD ACTIVE UNKNOWN

§ Identity

Operator
Country
GER
Launch date
2018-02-01
Launch site
VOSTO
Launch vehicle
Mass (kg)
RCS (m²)

External: N2YO · Heavens-Above · Gunter

§ Orbital elements

Epoch: 2026-05-25T04:27:01.476000Z

Period
94.96 min
Inclination
97.5414°
Eccentricity
0.0012043
Mean motion
15.16378064 rev/d
Perigee alt
508.5 km
Apogee alt
525.1 km
Semi-major
6,894.9 km
B*
2.2429e-4
RAAN
50.3829°
Arg perigee
87.5621°
Mean anomaly
272.6991°
Rev number
45,382

§ Raw data

S-NET C1 43189U 18014K   26145.18543375  .00004294  00000+0  22429-3 0  99932 43189  97.5414  50.3829 0012043  87.5621 272.6991 15.16378064453822

JSON: /api/v1/satellites/43189 · /tle

For live sub-satellite position, see the globe view (requires WebGL).

§ Visibility from observer

Set your observer location to see the next 7 days of passes ≥ 10°. The values pass through the URL so the page stays shareable.

No JS? Fill the form by hand. The geolocation button needs JavaScript.

§ Radio — SatNOGS DB

ModeDescriptionDownlinkUplink
AFSK TUBiX10 AFSK 1k2 TLM 435.950 MHz
FM S-Band Downlink 2.263 GHz
DSTAR MODE FM VOICE - WRONG ASSIGNED BELONGS TO D-STAR ONE (inactive) 435.525 MHz

3 transmitters · refreshed weekly from db.satnogs.org